Wind_Speed
7 16 12 6 3 6 11 10 9 12 11 16 15 22 23 30 16 12 17 18 22 22 19 16 13 10 4 6 7 8 12 13 16 14 14 15 12 11 13 13 12 12 10 8
11 18 14 1 6 10 11 3 5 3 5 9 11 15 15 8 8 11 9 14 17 14 17 19 12 8 7 4 6 8 6 7 8 6 6 6 9 9 10 10 11 12 12 12
12 16 8 6 9 10 8 11 9 9 7 9 10 11 11 9 20 11 4 9 13 13 14 14 16 11 8 6 6 2 6 8 7 3 4 6 6 7 8 10 9 10 11 12
3 7 4 6 8 12 6 7 2 5 12 17 14 16 10 14 12 8 11 13 17 15 16 12 13 15 13 9 6 4 2 3 4 3 5 7 9 12 9 12 10 11 16 23
15 13 11 13 5 5 9 12 9 6 7 7 9 10 10 14 19 21 12 7 12 19 19 13 9 9 11 13 6 3 3 1 2 2 3 3 3 7 10 6 4 8 9 6
12 8 11 19 14 3 17 11 8 2 6 2 3 9 13 13 15 16 2 7 12 19 19 13 6 8 9 8 8 2 2 2 4 4 4 4 2 6 4 4 6 7 7 7
11 7 15 16 13 9 15 12 9 10 10 8 11 6 12 12 15 6 14 18 17 19 18 16 6 7 7 5 5 3 4 6 7 6 6 5 5 4 4 5 3 3 2 2
6 12 13 12 18 11 10 7 5 4 8 11 8 9 12 7 7 2 8 9 14 23 25 18 8 11 9 9 7 6 6 9 10 10 8 7 7 6 4 4 3 2 5 3
4 5 5 4 9 8 5 8 8 5 4 4 7 2 2 6 2 7 12 11 14 26 23 21 18 18 17 14 15 11 10 9 10 12 12 11 11 9 8 9 6 5 4 4
16 10 7 5 5 5 2 5 5 4 4 7 6 8 11 15 10 13 18 18 21 23 24 21 19 17 20 21 19 16 13 12 9 11 12 12 12 13 13 13 10 9 6 6
7 20 12 13 5 3 7 13 12 7 9 1 5 9 11 12 15 17 22 24 25 20 20 16 19 24 22 25 20 21 17 14 13 11 12 13 15 16 16 16 13 10 10 10
9 16 16 17 12 10 10 10 11 9 14 11 8 8 8 9 15 19 24 25 20 18 22 19 15 22 26 17 31 25 19 16 16 18 18 16 16 15 13 14 14 14 13 14
11 8 8 15 24 22 19 16 14 11 22 19 17 12 15 15 20 30 31 25 22 25 23 24 28 22 27 33 27 16 14 23 20 21 23 20 17 16 15 14 14 14 15 16
9 9 9 13 19 23 23 21 18 10 9 19 23 28 25 23 23 32 35 28 26 29 20 26 33 22 18 21 21 8 14 28 31 26 24 24 21 18 15 12 14 15 16 17
8 11 12 14 17 20 20 21 20 22 24 19 17 28 31 32 30 33 37 37 33 29 22 27 25 26 23 17 18 12 11 14 26 27 29 29 28 25 21 20 21 22 21 22
11 12 15 18 18 20 20 18 19 22 21 21 19 24 34 33 34 37 41 41 37 36 29 22 22 20 21 24 17 17 14 12 21 22 28 32 33 32 26 27 32 23 28 26
16 16 16 15 18 18 15 18 21 22 22 21 19 20 20 21 23 25 30 34 33 32 31 26 25 23 16 19 29 24 20 23 25 28 32 36 35 37 35 33 19 16 29 32
20 20 19 18 17 14 16 19 20 21 21 22 21 19 18 17 21 25 28 33 31 31 33 31 29 26 27 36 34 28 22 26 27 32 39 47 41 39 42 28 16 15 23 21
22 21 22 21 17 14 17 18 21 21 21 18 17 19 19 19 21 23 24 29 28 33 36 37 38 33 33 34 39 32 38 35 40 35 40 24 37 35 26 15 18 25 25 25
24 23 23 21 20 17 20 22 21 22 24 20 18 19 20 23 26 27 27 30 32 34 37 39 42 41 37 35 33 31 33 33 25 39 41 40 40 41 37 29 23 31 30 31
27 26 24 21 24 21 22 25 23 24 22 19 17 17 20 23 26 30 31 32 34 36 38 39 44 43 43 43 41 38 36 31 34 34 40 44 42 47 50 45 37 34 35 33
29 29 28 26 25 25 22 23 23 22 20 17 17 18 18 22 29 33 34 34 37 40 41 42 44 46 46 46 45 44 43 40 38 38 41 41 42 37 47 44 40 40 38 39
29 30 29 28 27 24 22 23 23 21 20 20 17 20 23 27 31 33 35 37 36 35 39 43 45 47 48 47 49 47 45 44 45 42 39 42 38 40 42 42 47 51 59 52
31 29 29 27 27 27 28 25 21 21 21 20 24 25 29 31 30 31 34 35 36 38 40 41 45 49 51 50 45 43 43 44 44 45 47 45 45 45 44 46 45 49 35 43
29 29 30 28 28 28 27 27 24 25 28 30 30 31 31 30 30 32 33 36 39 38 37 38 38 39 42 47 49 50 53 53 54 54 53 55 57 50 47 46 46 53 54 53
31 29 33 32 32 30 26 25 24 26 30 32 33 34 32 31 33 35 38 38 35 35 36 34 36 41 45 48 50 53 56 57 58 59 59 62 57 62 60 56 52 51 51 49
Wind_Direction
176 157 154 99 48 357 323 31 50 49 2 339 353 344 359 48 83 72 73 76 70 67 70 75 68 70 129 147 186 229 230 235 247 249 252 251 263 232 228 232 240 246 239 209
150 158 178 87 334 316 300 60 321 41 322 327 331 336 346 352 41 29 98 83 85 79 60 53 70 90 87 84 187 208 217 234 227 229 239 244 243 241 240 242 236 233 229 239
175 169 164 216 281 278 234 225 260 318 305 296 296 317 298 331 7 14 34 97 77 67 70 62 49 45 58 65 71 349 250 242 234 249 287 273 243 217 224 221 222 233 242 236
153 201 46 355 269 270 292 266 256 235 276 283 276 288 322 341 8 41 60 83 76 51 31 41 48 42 23 40 50 47 23 284 268 254 259 260 239 230 220 228 257 232 269 247
42 30 51 17 280 340 126 120 119 104 80 75 278 309 310 326 331 345 1 110 62 48 33 28 24 28 22 17 38 23 2 325 208 140 182 209 247 230 221 227 239 221 238 225
27 5 19 49 19 66 148 157 137 120 133 89 22 18 7 342 343 346 21 357 6 24 27 9 340 349 349 2 2 7 277 218 207 165 174 149 168 187 218 194 193 183 208 245
44 47 48 33 5 285 188 176 119 84 65 22 35 333 319 1 349 335 28 9 351 344 3 13 307 298 312 303 320 296 257 230 217 183 181 189 196 182 215 226 215 220 218 224
38 67 38 45 4 22 228 233 198 112 34 21 20 348 335 353 346 178 47 346 322 331 333 339 321 250 233 260 246 253 243 244 222 201 195 219 216 202 222 245 245 214 184 193
264 136 101 68 345 333 268 242 253 192 4 25 30 37 221 297 277 224 303 302 315 318 319 313 310 233 235 243 244 231 242 244 240 223 210 209 227 234 247 268 278 255 232 176
239 235 226 217 256 354 234 40 234 241 218 10 320 324 312 316 319 321 321 299 295 301 307 309 285 263 233 244 242 241 246 249 245 252 241 237 243 256 262 268 271 265 251 209
294 233 251 269 261 291 325 317 303 224 199 223 328 301 303 307 307 302 302 302 309 303 319 303 294 258 231 238 241 247 246 252 254 243 240 240 245 256 260 266 263 254 253 230
251 256 258 222 238 242 240 259 290 248 203 233 256 291 304 291 286 290 304 316 319 318 331 332 320 322 296 300 232 217 230 237 248 252 239 233 242 247 257 272 274 263 258 240
291 277 243 217 225 240 250 257 264 233 209 222 244 261 234 258 280 288 291 301 297 323 343 340 338 324 308 305 317 291 239 239 228 237 235 227 232 242 247 251 270 271 255 243
284 276 249 229 229 243 256 267 261 268 269 231 246 249 250 259 276 278 285 303 303 305 326 322 326 312 297 297 323 213 235 255 232 220 234 237 224 224 235 247 258 260 257 249
263 272 273 252 253 264 268 273 273 274 287 272 240 246 252 261 271 283 289 301 314 324 327 322 320 313 308 295 277 260 245 252 226 214 225 237 238 227 226 233 236 244 247 248
262 248 266 272 268 260 262 275 272 261 263 269 263 250 258 271 272 273 284 294 305 311 316 311 306 304 308 286 256 260 259 250 244 245 236 239 237 236 229 238 235 237 242 245
277 274 276 272 269 269 268 251 251 258 262 270 270 269 277 283 286 289 296 299 311 315 318 318 309 305 296 280 263 244 231 237 237 234 235 245 255 255 234 231 238 246 239 238
270 272 278 274 263 264 259 256 258 268 274 278 284 291 288 292 299 297 300 297 303 304 302 304 301 297 298 299 277 238 244 251 249 246 242 240 234 242 248 205 204 252 247 255
268 272 276 272 257 241 252 247 254 265 271 274 271 279 287 292 291 293 296 298 296 296 298 300 300 301 302 305 314 316 295 299 276 258 261 271 241 253 264 224 220 251 262 257
268 269 269 265 260 249 254 254 255 262 269 282 291 296 302 304 299 294 293 293 294 295 298 298 297 299 301 301 299 298 287 301 304 282 289 288 282 275 268 257 254 263 263 262
271 273 273 268 269 261 251 267 275 271 280 289 294 294 288 282 280 282 283 287 292 296 295 294 294 295 296 299 301 300 297 294 283 280 278 285 279 274 271 270 266 258 257 257
269 269 271 273 267 260 263 267 272 279 282 282 278 276 280 279 278 283 291 295 295 296 299 300 299 299 299 298 295 294 293 289 282 280 276 271 277 262 258 266 269 269 264 258
255 259 265 273 277 275 272 273 279 279 275 283 291 290 285 280 281 287 289 290 293 297 299 299 296 292 289 288 293 296 296 294 291 285 276 279 276 264 265 260 270 270 268 252
257 258 263 271 276 281 283 285 284 283 289 289 287 288 290 291 292 291 292 299 301 299 295 296 296 297 299 299 297 296 295 292 288 287 285 277 269 266 262 259 255 260 242 253
255 259 262 266 265 268 277 284 293 297 298 298 301 300 299 297 294 293 298 296 295 296 294 290 288 288 291 295 296 292 291 290 288 283 280 279 279 269 265 259 254 252 259 262
249 252 256 258 260 267 269 270 282 289 292 297 297 296 296 293 291 292 296 301 297 293 288 289 290 293 294 293 292 292 293 292 288 287 285 279 269 269 268 261 258 256 258 258
Height
5916 5921 5922 5921 5920 5919 5921 5923 5924 5923 5921 5920 5916 5915 5919 5919 5922 5923 5920 5917 5916 5917 5918 5917 5917 5916 5917 5917 5917 5916 5917 5918 5919 5919 5919 5919 5919 5920 5922 5924 5924 5926 5929 5928
5915 5918 5919 5918 5917 5919 5920 5922 5921 5922 5920 5921 5920 5918 5920 5923 5925 5925 5923 5921 5920 5920 5920 5920 5921 5921 5920 5919 5919 5917 5916 5916 5917 5916 5917 5917 5918 5917 5918 5920 5922 5923 5925 5926
5914 5916 5915 5915 5917 5918 5919 5919 5920 5920 5921 5921 5920 5919 5920 5923 5925 5926 5924 5920 5920 5921 5922 5922 5923 5922 5921 5918 5916 5915 5915 5916 5915 5914 5915 5915 5916 5915 5915 5917 5920 5921 5922 5924
5914 5913 5914 5915 5916 5914 5916 5917 5918 5920 5920 5918 5917 5918 5918 5919 5921 5923 5922 5920 5919 5921 5923 5921 5921 5921 5919 5915 5913 5913 5913 5912 5912 5913 5914 5914 5913 5912 5914 5915 5916 5917 5919 5919
5916 5915 5912 5912 5912 5914 5914 5915 5916 5916 5916 5917 5916 5915 5917 5915 5913 5915 5916 5919 5918 5918 5918 5919 5919 5918 5918 5916 5914 5912 5911 5910 5912 5913 5913 5912 5910 5911 5912 5914 5914 5914 5915 5913
5912 5912 5914 5912 5913 5913 5913 5913 5913 5912 5912 5913 5915 5914 5912 5912 5912 5910 5914 5917 5915 5916 5917 5917 5917 5917 5915 5914 5914 5912 5912 5911 5911 5912 5912 5911 5911 5912 5912 5912 5913 5912 5912 5913
5910 5911 5911 5912 5913 5912 5912 5911 5912 5913 5911 5911 5911 5911 5913 5913 5911 5912 5913 5912 5911 5911 5912 5914 5914 5914 5913 5912 5911 5911 5912 5911 5910 5911 5911 5911 5911 5911 5911 5910 5910 5911 5912 5911
5912 5911 5911 5912 5913 5910 5910 5911 5911 5911 5910 5910 5909 5910 5912 5912 5912 5911 5911 5910 5910 5907 5907 5909 5910 5910 5910 5908 5908 5908 5909 5911 5909 5908 5908 5910 5911 5911 5910 5909 5911 5911 5911 5910
5913 5911 5910 5911 5912 5912 5910 5910 5911 5912 5910 5908 5908 5909 5909 5909 5910 5911 5912 5911 5909 5905 5906 5905 5906 5903 5906 5907 5903 5905 5906 5908 5909 5908 5909 5909 5909 5909 5908 5908 5910 5910 5909 5910
5909 5912 5910 5910 5910 5909 5908 5909 5911 5911 5910 5907 5907 5906 5905 5905 5906 5907 5906 5907 5906 5905 5902 5899 5898 5899 5901 5902 5903 5903 5905 5906 5906 5907 5907 5908 5909 5908 5907 5907 5907 5906 5906 5908
5907 5908 5911 5911 5908 5906 5907 5906 5905 5906 5906 5905 5905 5904 5902 5903 5905 5905 5903 5902 5899 5897 5896 5894 5894 5890 5890 5897 5900 5901 5902 5904 5904 5904 5905 5905 5905 5907 5907 5906 5906 5906 5905 5906
5904 5904 5905 5907 5905 5904 5903 5901 5902 5903 5904 5902 5901 5902 5902 5903 5902 5899 5896 5896 5893 5891 5892 5891 5890 5887 5883 5889 5892 5893 5899 5899 5901 5900 5900 5901 5902 5902 5903 5903 5904 5904 5905 5904
5901 5902 5901 5901 5903 5902 5900 5900 5899 5899 5901 5901 5901 5900 5897 5897 5896 5893 5893 5895 5895 5893 5893 5890 5889 5889 5887 5882 5883 5887 5893 5894 5890 5893 5895 5894 5895 5897 5897 5897 5898 5900 5902 5903
5898 5898 5899 5899 5898 5898 5897 5896 5896 5897 5899 5898 5898 5895 5895 5894 5892 5891 5889 5892 5893 5891 5888 5886 5887 5887 5885 5886 5875 5884 5885 5884 5881 5883 5889 5890 5888 5888 5889 5891 5893 5893 5896 5898
5895 5895 5895 5895 5894 5893 5893 5893 5893 5893 5893 5891 5892 5890 5886 5888 5889 5888 5885 5884 5885 5886 5886 5884 5882 5882 5882 5880 5880 5882 5882 5879 5877 5874 5880 5885 5885 5882 5881 5883 5884 5885 5888 5892
5891 5891 5891 5890 5890 5889 5889 5889 5888 5888 5886 5884 5885 5885 5883 5885 5885 5884 5880 5877 5878 5876 5878 5878 5877 5876 5878 5879 5875 5875 5876 5877 5877 5875 5872 5875 5873 5873 5873 5874 5877 5879 5879 5882
5886 5885 5885 5886 5884 5884 5885 5882 5880 5879 5878 5878 5879 5881 5882 5881 5881 5880 5878 5871 5872 5870 5868 5871 5870 5868 5867 5870 5867 5864 5859 5860 5863 5862 5862 5865 5863 5863 5857 5859 5868 5868 5872 5872
5880 5880 5880 5880 5880 5880 5878 5876 5876 5874 5875 5873 5874 5876 5877 5878 5877 5876 5874 5866 5867 5867 5863 5861 5859 5861 5861 5854 5849 5853 5854 5853 5856 5853 5848 5845 5847 5850 5817 5814 5846 5860 5865 5865
5873 5874 5874 5873 5874 5875 5872 5872 5871 5872 5871 5871 5870 5871 5871 5872 5872 5871 5869 5863 5864 5859 5854 5849 5845 5849 5849 5843 5835 5843 5848 5849 5847 5836 5820 5804 5800 5825 5827 5831 5847 5856 5857 5857
5866 5867 5867 5866 5866 5869 5865 5866 5867 5867 5866 5867 5868 5867 5865 5864 5862 5862 5862 5859 5856 5852 5849 5845 5837 5835 5839 5840 5842 5845 5846 5842 5838 5838 5836 5834 5830 5833 5834 5833 5835 5841 5844 5847
5858 5858 5859 5859 5858 5861 5860 5859 5860 5861 5864 5862 5863 5863 5861 5859 5857 5854 5853 5852 5848 5845 5841 5839 5833 5831 5830 5831 5832 5832 5832 5832 5831 5828 5827 5827 5827 5825 5828 5828 5828 5829 5832 5834
5851 5851 5851 5852 5852 5853 5855 5855 5856 5856 5855 5856 5857 5856 5856 5851 5847 5845 5845 5844 5841 5835 5831 5827 5824 5819 5818 5816 5817 5817 5816 5817 5817 5815 5813 5814 5815 5811 5817 5819 5820 5822 5820 5823
5844 5844 5845 5846 5844 5845 5846 5846 5847 5848 5849 5848 5848 5847 5845 5843 5840 5838 5836 5834 5834 5831 5825 5818 5812 5808 5803 5803 5798 5797 5798 5798 5797 5797 5799 5796 5796 5799 5802 5805 5806 5806 5805 5808
5834 5837 5838 5839 5837 5836 5835 5837 5839 5841 5841 5841 5840 5839 5836 5833 5832 5829 5826 5824 5822 5819 5814 5809 5801 5795 5788 5786 5787 5785 5784 5784 5785 5784 5783 5783 5783 5783 5784 5786 5788 5790 5794 5799
5827 5829 5829 5831 5830 5830 5831 5830 5831 5832 5831 5830 5830 5829 5827 5825 5822 5820 5818 5815 5812 5808 5804 5799 5794 5789 5784 5778 5774 5774 5773 5770 5768 5768 5767 5765 5764 5766 5768 5770 5773 5775 5776 5778
5818 5821 5819 5821 5822 5823 5824 5825 5826 5825 5824 5824 5822 5821 5819 5818 5814 5810 5807 5803 5800 5797 5792 5788 5784 5779 5774 5770 5765 5758 5752 5748 5748 5747 5744 5741 5740 5742 5744 5749 5752 5754 5755 5759